Météo Nord-Pas-de-Calais   La météo au plus près de chez vous

Station météorologique

Observations météo à Trappes (78621)

78621001 167 m Dernier relevé à 08:30
15.5°C
Humidité 90 % Vent 4.3 km/h 1023.4 hPa

Journée consultée

Samedi 5 Septembre 2026

Synthèse de la journée

Périodes de référence en UTC

Température maximale

15.5°C

à 08:30

06h 06h

Température minimale

15.1°C

à 08:00

18h 18h

Rafale maximale

22 km/h

à 03:00

00h 00h

Précipitations

0 mm

Cumul quotidien

06h 06h

Ensoleillement

0h 39 mins

Durée quotidienne

00h 00h

Graphiques de la journée

Heure locale Réduire

Données détaillées

Relevés météo

Pas de 6 minutes Afficher les relevés infra-horaires
Relevés météo détaillés à Trappes pour le Samedi 5 Septembre 2026
Heure Température °C Point de rosée °C Humidité % Vent moyen (raf.), km/h Précipitations mm Température à 10 cm °C Température à 20 cm °C Température à 50 cm °C Température à 100 cm °C Visibilité m Hauteur neige cm Ensoleillement min Rayonnement global W/m² Pression hPa Nébulosité Octas
08:30 15.5 °C 13.7 °C 89 % 6 km/h (14 km/h) 0 mm0 mm 19.9 °C 20.4 °C 19.7 °C 18.7 °C 20000 m 0 cm 6 min 46 W/m² 1024.1 hPa
08:24 15.4 °C 13.8 °C 90 % 6 km/h (14 km/h) 0 mm0 mm 19.9 °C 20.4 °C 19.7 °C 18.7 °C 19370 m 0 cm 6 min 42.7 W/m² 1024.1 hPa
08:18 15.3 °C 13.7 °C 90 % 6 km/h (13 km/h) 0 mm0 mm 20 °C 20.4 °C 19.7 °C 18.7 °C 19600 m 0 cm 6 min 38.6 W/m² 1024 hPa
08:12 15.3 °C 13.7 °C 90 % 5 km/h (9 km/h) 0 mm0 mm 20 °C 20.5 °C 19.7 °C 18.7 °C 19980 m 0 cm 6 min 29.2 W/m² 1024 hPa
08:06 15.3 °C 13.8 °C 91 % 5 km/h (10 km/h) 0 mm0 mm 20 °C 20.5 °C 19.7 °C 18.6 °C 20000 m 0 cm 6 min 25.5 W/m² 1023.9 hPa
08:00 15.3 °C 13.7 °C 90 % 6 km/h (13 km/h) 0 mm0 mm 20 °C 20.5 °C 19.7 °C 18.7 °C 20000 m 0 cm 6 min 22.4 W/m² 1023.9 hPa
07:54 15.3 °C 13.8 °C 91 % 6 km/h (13 km/h) 0 mm0 mm 20 °C 20.5 °C 19.7 °C 18.6 °C 20000 m 0 cm 3 min 16.1 W/m² 1023.8 hPa
07:48 15.2 °C 13.7 °C 91 % 4 km/h (11 km/h) 0 mm0 mm 20.1 °C 20.5 °C 19.7 °C 18.6 °C 20000 m 0 cm 0 min 11.6 W/m² 1023.7 hPa
07:42 15.2 °C 13.6 °C 90 % 5 km/h (12 km/h) 0 mm0 mm 20.1 °C 20.5 °C 19.7 °C 18.6 °C 20000 m 0 cm 0 min 6.6 W/m² 1023.7 hPa
07:36 15.2 °C 13.6 °C 90 % 5 km/h (9 km/h) 0 mm0 mm 20.1 °C 20.5 °C 19.7 °C 18.7 °C 20000 m 0 cm 0 min 0 W/m² 1023.5 hPa
07:30 15.2 °C 13.6 °C 90 % 4 km/h (9 km/h) 0 mm0 mm 20.1 °C 20.6 °C 19.7 °C 18.7 °C 20000 m 0 cm 0 min 0 W/m² 1023.4 hPa
07:24 15.3 °C 13.5 °C 89 % 5 km/h (9 km/h) 0 mm0 mm 20.2 °C 20.5 °C 19.7 °C 18.6 °C 20000 m 0 cm 0 min 0 W/m² 1023.5 hPa
07:18 15.3 °C 13.5 °C 89 % 4 km/h (11 km/h) 0 mm0 mm 20.2 °C 20.6 °C 19.7 °C 18.6 °C 20000 m 0 cm 0 min 0 W/m² 1023.4 hPa
07:12 15.4 °C 13.6 °C 89 % 6 km/h (14 km/h) 0 mm0 mm 20.2 °C 20.6 °C 19.7 °C 18.6 °C 20000 m 0 cm 0 min 0 W/m² 1023.3 hPa
07:06 15.5 °C 13.5 °C 88 % 8 km/h (14 km/h) 0 mm0 mm 20.2 °C 20.6 °C 19.7 °C 18.7 °C 20000 m 0 cm 0 min 0 W/m² 1023.3 hPa
07:00 15.6 °C 13.6 °C 88 % 8 km/h (14 km/h) 0 mm0 mm 20.2 °C 20.6 °C 19.7 °C 18.6 °C 20000 m 0 cm 0 min 0 W/m² 1023.3 hPa
06:54 15.7 °C 13.5 °C 87 % 7 km/h (14 km/h) 0 mm0 mm 20.3 °C 20.6 °C 19.7 °C 18.6 °C 20000 m 0 cm 0 min 0 W/m² 1023.2 hPa
06:48 15.7 °C 13.5 °C 87 % 6 km/h (14 km/h) 0 mm0 mm 20.3 °C 20.6 °C 19.7 °C 18.6 °C 20000 m 0 cm 0 min 0 W/m² 1023.1 hPa
06:42 15.8 °C 13.5 °C 86 % 6 km/h (14 km/h) 0 mm0 mm 20.3 °C 20.7 °C 19.7 °C 18.6 °C 20000 m 0 cm 0 min 0 W/m² 1023 hPa
06:36 15.9 °C 13.6 °C 86 % 6 km/h (12 km/h) 0 mm0 mm 20.3 °C 20.7 °C 19.7 °C 18.6 °C 20000 m 0 cm 0 min 0 W/m² 1023.1 hPa
06:30 16 °C 13.5 °C 85 % 5 km/h (10 km/h) 0 mm0 mm 20.4 °C 20.7 °C 19.7 °C 18.6 °C 20000 m 0 cm 0 min 0 W/m² 1022.8 hPa
06:24 16.1 °C 13.6 °C 85 % 6 km/h (13 km/h) 0 mm0 mm 20.4 °C 20.7 °C 19.7 °C 18.6 °C 20000 m 0 cm 0 min 0 W/m² 1022.9 hPa
06:18 16.2 °C 13.5 °C 84 % 6 km/h (12 km/h) 0 mm0 mm 20.4 °C 20.7 °C 19.7 °C 18.6 °C 20000 m 0 cm 0 min 0 W/m² 1022.9 hPa
06:12 16.2 °C 13.3 °C 83 % 7 km/h (14 km/h) 0 mm0 mm 20.4 °C 20.7 °C 19.7 °C 18.6 °C 20000 m 0 cm 0 min 0 W/m² 1022.8 hPa
06:06 16.2 °C 13.1 °C 82 % 7 km/h (15 km/h) 0 mm0 mm 20.4 °C 20.8 °C 19.7 °C 18.7 °C 20000 m 0 cm 0 min 0 W/m² 1022.8 hPa
06:00 16.3 °C 13 °C 81 % 6 km/h (15 km/h) 0 mm0 mm 20.5 °C 20.7 °C 19.7 °C 18.7 °C 20000 m 0 cm 0 min 0 W/m² 1022.8 hPa 8 Octas
05:54 16.3 °C 13 °C 81 % 5 km/h (12 km/h) 0 mm0 mm 20.5 °C 20.8 °C 19.7 °C 18.7 °C 20000 m 0 cm 0 min 0 W/m² 1022.7 hPa
05:48 16.3 °C 13 °C 81 % 6 km/h (12 km/h) 0 mm0 mm 20.5 °C 20.8 °C 19.7 °C 18.6 °C 20000 m 0 cm 0 min 0 W/m² 1022.7 hPa
05:42 16.3 °C 13 °C 81 % 6 km/h (13 km/h) 0 mm0 mm 20.5 °C 20.8 °C 19.7 °C 18.7 °C 20000 m 0 cm 0 min 0 W/m² 1022.6 hPa
05:36 16.3 °C 13 °C 81 % 5 km/h (13 km/h) 0 mm0 mm 20.5 °C 20.8 °C 19.7 °C 18.6 °C 20000 m 0 cm 0 min 0 W/m² 1022.7 hPa
05:30 16.4 °C 13.1 °C 81 % 6 km/h (13 km/h) 0 mm0 mm 20.5 °C 20.8 °C 19.7 °C 18.6 °C 20000 m 0 cm 0 min 0 W/m² 1022.6 hPa
05:24 16.4 °C 13.1 °C 81 % 6 km/h (12 km/h) 0 mm0 mm 20.6 °C 20.8 °C 19.7 °C 18.6 °C 20000 m 0 cm 0 min 0 W/m² 1022.6 hPa
05:18 16.4 °C 13.1 °C 81 % 7 km/h (15 km/h) 0 mm0 mm 20.6 °C 20.8 °C 19.7 °C 18.6 °C 20000 m 0 cm 0 min 0 W/m² 1022.5 hPa
05:12 16.4 °C 13.1 °C 81 % 7 km/h (15 km/h) 0 mm0 mm 20.6 °C 20.8 °C 19.7 °C 18.7 °C 20000 m 0 cm 0 min 0 W/m² 1022.5 hPa
05:06 16.5 °C 13.2 °C 81 % 6 km/h (15 km/h) 0 mm0 mm 20.6 °C 20.9 °C 19.7 °C 18.6 °C 20000 m 0 cm 0 min 0 W/m² 1022.4 hPa
05:00 16.5 °C 13.2 °C 81 % 6 km/h (15 km/h) 0 mm0 mm 20.7 °C 20.9 °C 19.7 °C 18.6 °C 20000 m 0 cm 0 min 0 W/m² 1022.3 hPa 8 Octas
04:54 16.5 °C 13.2 °C 81 % 8 km/h (17 km/h) 0 mm0 mm 20.7 °C 20.9 °C 19.7 °C 18.6 °C 20000 m 0 cm 0 min 0 W/m² 1022.2 hPa
04:48 16.6 °C 13.3 °C 81 % 8 km/h (17 km/h) 0 mm0 mm 20.7 °C 20.9 °C 19.7 °C 18.6 °C 20000 m 0 cm 0 min 0 W/m² 1022.3 hPa
04:42 16.6 °C 13.5 °C 82 % 6 km/h (14 km/h) 0 mm0 mm 20.7 °C 20.9 °C 19.7 °C 18.6 °C 20000 m 0 cm 0 min 0 W/m² 1022.3 hPa
04:36 16.7 °C 13.6 °C 82 % 6 km/h (14 km/h) 0 mm0 mm 20.7 °C 20.9 °C 19.7 °C 18.6 °C 20000 m 0 cm 0 min 0 W/m² 1022.2 hPa
04:30 16.8 °C 13.9 °C 83 % 5 km/h (13 km/h) 0 mm0 mm 20.7 °C 20.9 °C 19.7 °C 18.6 °C 20000 m 0 cm 0 min 0 W/m² 1022.1 hPa
04:24 16.9 °C 14 °C 83 % 8 km/h (16 km/h) 0 mm0 mm 20.8 °C 20.9 °C 19.6 °C 18.6 °C 20000 m 0 cm 0 min 0 W/m² 1022.1 hPa
04:18 16.9 °C 14 °C 83 % 8 km/h (16 km/h) 0 mm0 mm 20.8 °C 21 °C 19.7 °C 18.6 °C 20000 m 0 cm 0 min 0 W/m² 1022.1 hPa
04:12 16.9 °C 14 °C 83 % 9 km/h (18 km/h) 0 mm0 mm 20.8 °C 21 °C 19.7 °C 18.7 °C 20000 m 0 cm 0 min 0 W/m² 1022 hPa
04:06 17 °C 14.1 °C 83 % 8 km/h (18 km/h) 0 mm0 mm 20.8 °C 21 °C 19.6 °C 18.6 °C 20000 m 0 cm 0 min 0 W/m² 1021.8 hPa
04:00 17 °C 14.1 °C 83 % 7 km/h (17 km/h) 0 mm0 mm 20.8 °C 21 °C 19.6 °C 18.7 °C 20000 m 0 cm 0 min 0 W/m² 1021.8 hPa 8 Octas
03:54 17.1 °C 14.2 °C 83 % 9 km/h (17 km/h) 0 mm0 mm 20.9 °C 21 °C 19.6 °C 18.6 °C 20000 m 0 cm 0 min 0 W/m² 1021.8 hPa
03:48 17.1 °C 14.2 °C 83 % 9 km/h (17 km/h) 0 mm0 mm 20.9 °C 21 °C 19.7 °C 18.7 °C 20000 m 0 cm 0 min 0 W/m² 1021.7 hPa
03:42 17.1 °C 14.2 °C 83 % 9 km/h (18 km/h) 0 mm0 mm 20.9 °C 21 °C 19.6 °C 18.6 °C 20000 m 0 cm 0 min 0 W/m² 1021.6 hPa
03:36 17.2 °C 14.3 °C 83 % 8 km/h (16 km/h) 0 mm0 mm 20.9 °C 21 °C 19.6 °C 18.6 °C 20000 m 0 cm 0 min 0 W/m² 1021.5 hPa
03:30 17.3 °C 14.4 °C 83 % 9 km/h (21 km/h) 0 mm0 mm 20.9 °C 21.1 °C 19.6 °C 18.6 °C 20000 m 0 cm 0 min 0 W/m² 1021.5 hPa
03:24 17.3 °C 14.4 °C 83 % 9 km/h (19 km/h) 0 mm0 mm 20.9 °C 21.1 °C 19.6 °C 18.6 °C 20000 m 0 cm 0 min 0 W/m² 1021.6 hPa
03:18 17.3 °C 14.6 °C 84 % 8 km/h (19 km/h) 0 mm0 mm 21 °C 21.1 °C 19.7 °C 18.7 °C 20000 m 0 cm 0 min 0 W/m² 1021.5 hPa
03:12 17.4 °C 14.7 °C 84 % 8 km/h (18 km/h) 0 mm0 mm 21 °C 21.1 °C 19.6 °C 18.6 °C 20000 m 0 cm 0 min 0 W/m² 1021.5 hPa
03:06 17.4 °C 14.9 °C 85 % 7 km/h (22 km/h) 0 mm0 mm 21 °C 21.1 °C 19.6 °C 18.6 °C 20000 m 0 cm 0 min 0 W/m² 1021.4 hPa
03:00 17.5 °C 14.9 °C 85 % 9 km/h (22 km/h) 0 mm0 mm 21 °C 21.1 °C 19.6 °C 18.6 °C 20000 m 0 cm 0 min 0 W/m² 1021.4 hPa 8 Octas
02:54 17.5 °C 15.1 °C 86 % 8 km/h (17 km/h) 0 mm0 mm 21 °C 21.2 °C 19.6 °C 18.7 °C 20000 m 0 cm 0 min 0 W/m² 1021.4 hPa
02:48 17.6 °C 15.6 °C 88 % 8 km/h (18 km/h) 0 mm0 mm 21.1 °C 21.2 °C 19.6 °C 18.7 °C 20000 m 0 cm 0 min 0 W/m² 1021.4 hPa
02:42 17.7 °C 15.7 °C 88 % 8 km/h (18 km/h) 0 mm0 mm 21.1 °C 21.2 °C 19.6 °C 18.6 °C 20000 m 0 cm 0 min 0 W/m² 1021.3 hPa
02:36 17.7 °C 15.7 °C 88 % 9 km/h (15 km/h) 0 mm0 mm 21.2 °C 21.2 °C 19.6 °C 18.6 °C 20000 m 0 cm 0 min 0 W/m² 1021.3 hPa
02:30 17.7 °C 15.7 °C 88 % 9 km/h (19 km/h) 0 mm0 mm 21.1 °C 21.2 °C 19.6 °C 18.7 °C 20000 m 0 cm 0 min 0 W/m² 1021.3 hPa
02:24 17.8 °C 15.8 °C 88 % 9 km/h (19 km/h) 0 mm0 mm 21.2 °C 21.2 °C 19.6 °C 18.6 °C 20000 m 0 cm 0 min 0 W/m² 1021.2 hPa
02:18 17.8 °C 15.8 °C 88 % 8 km/h (17 km/h) 0 mm0 mm 21.2 °C 21.2 °C 19.6 °C 18.6 °C 20000 m 0 cm 0 min 0 W/m² 1021.3 hPa
02:12 17.9 °C 15.9 °C 88 % 8 km/h (15 km/h) 0 mm0 mm 21.2 °C 21.2 °C 19.6 °C 18.6 °C 20000 m 0 cm 0 min 0 W/m² 1021.2 hPa
02:06 17.9 °C 15.9 °C 88 % 7 km/h (15 km/h) 0 mm0 mm 21.2 °C 21.2 °C 19.6 °C 18.6 °C 20000 m 0 cm 0 min 0 W/m² 1021.2 hPa
02:00 18 °C 15.8 °C 87 % 7 km/h (15 km/h) 0 mm0 mm 21.3 °C 21.3 °C 19.6 °C 18.7 °C 20000 m 0 cm 0 min 0 W/m² 1021.1 hPa 8 Octas
01:54 18 °C 15.8 °C 87 % 8 km/h (14 km/h) 0 mm0 mm 21.3 °C 21.3 °C 19.6 °C 18.6 °C 20000 m 0 cm 0 min 0 W/m² 1021.1 hPa
01:48 18 °C 15.8 °C 87 % 7 km/h (14 km/h) 0 mm0 mm 21.3 °C 21.3 °C 19.6 °C 18.6 °C 20000 m 0 cm 0 min 0 W/m² 1021 hPa
01:42 18.1 °C 15.7 °C 86 % 7 km/h (14 km/h) 0 mm0 mm 21.3 °C 21.3 °C 19.6 °C 18.6 °C 20000 m 0 cm 0 min 0 W/m² 1021.1 hPa
01:36 18.1 °C 15.7 °C 86 % 8 km/h (14 km/h) 0 mm0 mm 21.4 °C 21.3 °C 19.6 °C 18.6 °C 20000 m 0 cm 0 min 0 W/m² 1021 hPa
01:30 18.1 °C 15.5 °C 85 % 7 km/h (14 km/h) 0 mm0 mm 21.4 °C 21.3 °C 19.6 °C 18.6 °C 20000 m 0 cm 0 min 0 W/m² 1021 hPa
01:24 18.2 °C 15.6 °C 85 % 6 km/h (16 km/h) 0 mm0 mm 21.4 °C 21.3 °C 19.6 °C 18.6 °C 20000 m 0 cm 0 min 0 W/m² 1021.1 hPa
01:18 18.2 °C 15.4 °C 84 % 6 km/h (16 km/h) 0 mm0 mm 21.4 °C 21.4 °C 19.6 °C 18.7 °C 20000 m 0 cm 0 min 0 W/m² 1021 hPa
01:12 18.2 °C 15.3 °C 83 % 6 km/h (16 km/h) 0 mm0 mm 21.4 °C 21.4 °C 19.6 °C 18.6 °C 0 cm 0 min 0 W/m² 1021 hPa
01:06 18.2 °C 15.1 °C 82 % 6 km/h (14 km/h) 0 mm0 mm 21.5 °C 21.4 °C 19.6 °C 18.6 °C 20000 m 0 cm 0 min 0 W/m² 1020.9 hPa
01:00 18.2 °C 15.1 °C 82 % 8 km/h (16 km/h) 0 mm0 mm 21.5 °C 21.4 °C 19.6 °C 18.6 °C 20000 m 0 cm 0 min 0 W/m² 1021 hPa 8 Octas
00:54 18.3 °C 15.2 °C 82 % 8 km/h (15 km/h) 0 mm0 mm 21.5 °C 21.4 °C 19.6 °C 18.6 °C 20000 m 0 cm 0 min 0 W/m² 1021.1 hPa
00:48 18.4 °C 15.1 °C 81 % 8 km/h (15 km/h) 0 mm0 mm 21.5 °C 21.4 °C 19.6 °C 18.7 °C 20000 m 0 cm 0 min 0 W/m² 1021 hPa
00:42 18.5 °C 15 °C 80 % 7 km/h (15 km/h) 0 mm0 mm 21.6 °C 21.4 °C 19.6 °C 18.6 °C 20000 m 0 cm 0 min 0 W/m² 1021.1 hPa
00:36 18.4 °C 14.9 °C 80 % 7 km/h (12 km/h) 0 mm0 mm 21.6 °C 21.4 °C 19.6 °C 18.7 °C 20000 m 0 cm 0 min 0 W/m² 1020.9 hPa
00:30 18.5 °C 14.8 °C 79 % 7 km/h (15 km/h) 0 mm0 mm 21.6 °C 21.4 °C 19.6 °C 18.7 °C 20000 m 0 cm 0 min 0 W/m² 1020.7 hPa
00:24 18.5 °C 14.8 °C 79 % 6 km/h (15 km/h) 0 mm0 mm 21.6 °C 21.5 °C 19.6 °C 18.7 °C 20000 m 0 cm 0 min 0 W/m² 1021 hPa
00:18 18.6 °C 15.1 °C 80 % 5 km/h (11 km/h) 0 mm0 mm 21.6 °C 21.4 °C 19.5 °C 18.6 °C 20000 m 0 cm 0 min 0 W/m² 1020.8 hPa
00:12 18.6 °C 15.1 °C 80 % 7 km/h (14 km/h) 0 mm0 mm 21.7 °C 21.5 °C 19.6 °C 18.6 °C 20000 m 0 cm 0 min 0 W/m² 1020.9 hPa
00:06 18.6 °C 15.1 °C 80 % 6 km/h (13 km/h) 0 mm0 mm 21.7 °C 21.5 °C 19.6 °C 18.6 °C 20000 m 0 cm 0 min 0 W/m² 1020.8 hPa
00:00 18.6 °C 15.1 °C 80 % 5 km/h (14 km/h) 0 mm0 mm 21.7 °C 21.5 °C 19.5 °C 18.6 °C 20000 m 0 cm 0 min 0 W/m² 1020.8 hPa 8 Octas

Données via Météo-France

Relevés météo à Trappes

Cette page rassemble les observations de la station de Trappes : température, humidité, vent, précipitations et pression atmosphérique. Les graphiques facilitent le suivi de la journée, tandis que le tableau donne accès aux mesures horaires et infra-horaires disponibles.

Pour replacer ces mesures dans leur contexte, consultez la climatologie de Trappes ainsi que ses normales et records. Retrouvez aussi la carte des observations météo en temps réel.